Starlink 11388

operational
NORAD ID: 62092 Int'l Des: 2024-220 Owner: SPXS Country: US Constellation: starlink
LEOCIRCULAR

Starlink 11388について

説明を読み込み中...

リアルタイム位置

3D地球を読み込み中...

次回通過

高度履歴

Altitude vs Time

uPlot chart will show altitude changes over time

軌道要素

1 62092U 24220E 25349.83211117 .00159509 00000-0 12158-2 0 9994
2 62092 42.9987 188.6207 0001867 247.4294 112.6376 15.70977476 61765
Epoch: Dec 15, 2025 • Age: 37 hours

現在のステータス

高度 357.7 km
速度 7.70 km/s
衛星直下点 38.15°N, 80.03°E
打ち上げ日 Nov 25, 2024
運用期間 1 years
タイプ internet

技術仕様

分類 Payload
質量 960.00 kg
乾燥質量 910.00 kg
総質量 960.00 kg
長さ 0.30 m
直径 4.10 m
スパン 29.00 m
形状 Box + pan
製造者 SPXS
バスタイプ Starlink V2MD
フェーズステータス In Orbit
所有者/国 SPXS/US

大規模コンステレーション

Loading constellations...